Location: Unspecified
(0.0000°N, 0.0000°E)
Time: 16:22:28
(UTC+00:00)

Vanguard 2 - Pass Details

Date: 26 November 2019
Orbit: 553 x 2938 km, 32.9° (Epoch: 13 December)

Event Time Altitude Azimuth Distance (km) Brightness Sun altitude
Rises 05:56:35 0° 275° (W) 6,770 11.7 2.2°
Reaches altitude 10° 06:03:20 10° 290° (WNW) 5,595 11.3 3.8°
Maximum altitude 06:13:52 20° 330° (NNW) 4,288 10.9 6.2°
Drops below altitude 10° 06:22:24 10° 12° (NNE) 4,399 11.3 8.2°
Sets 06:26:51 0° 29° (NNE) 4,971 11.8 9.3°
